Regional Weather Roundup
Issued by NWS

Home | Current Version | Previous Version | Text Only | Print | Product List | Glossary Off
Versions: 1 2 3 4 5 6 7 8 9 10 11 12 13 14 15 16 17 18 19 20 21 22 23 24 25 26 27 28 29 30 31 32 33 34 35 36 37 38 39 40 41 42 43 44 45 46 47 48 49 50

555
ASUS45 KCYS 161110
RWRWY

WYOMING REGIONAL WEATHER ROUNDUP
NATIONAL WEATHER SERVICE CHEYENNE WY
500 AM MDT WED AUG 16 2017

NOTE:  "FAIR" INDICATES FEW OR NO CLOUDS BELOW 12,000 FEET
WITH NO SIGNIFICANT WEATHER AND/OR OBSTRUCTIONS TO VISIBILITY.

WYZ001-161200-
YELLOWSTONE NATIONAL PARK

CITY           SKY/WX    TMP DP  RH WIND       PRES   REMARKS
LK YELLOWSTONE   N/A     34  34 100 NW3       30.24S
W YELLOWSTONE  NOT AVBL

$$
WYZ002>013-054>058-071-098>099-161200-
NORTHERN WYOMING

CITY           SKY/WX    TMP DP  RH WIND       PRES   REMARKS
JACKSON        FAIR      40  36  86 CALM      30.19R
CODY           FAIR      57  42  57 SW8       30.08R
GREYBULL       FAIR      53  49  86 CALM      30.03R
WORLAND        FAIR      51  48  89 S6        30.04R
SHERIDAN       FAIR      48  43  82 NW5       30.03R
BUFFALO        FAIR      53  38  56 SW8       30.08S
GILLETTE       FAIR      54  45  71 CALM      30.04S
HULETT         FAIR      48  46  93 S7        30.03F
NEWCASTLE      FAIR      52  48  87 N12       30.03R

$$
WYZ014>020-022>026-101>103-161200-
CENTRAL WYOMING

CITY           SKY/WX    TMP DP  RH WIND       PRES   REMARKS
BIG PINEY      FAIR      38  36  92 CALM      30.21R
PINEDALE       FAIR      36  36 100 W5        30.22S WCI  32
DUBOIS         FAIR      39  34  81 NW9       30.20S WCI  33
LANDER           N/A    N/A N/A N/A MISG      30.12R
RIVERTON       FAIR      50  44  80 W12       30.11S
CASPER         FAIR      47  46  97 W5        30.11S
DOUGLAS        FAIR      50  48  93 NW13      30.07F

$$
WYZ021-027>030-104>119-161200-
SOUTHERN WYOMING

CITY           SKY/WX    TMP DP  RH WIND       PRES   REMARKS
EVANSTON       FAIR      47  31  53 SE6       30.19S
KEMMERER         N/A     41  37  87 N10       30.21S
FORT BRIDGER   FAIR      46  36  66 W9        30.22R
ROCK SPRINGS   FAIR      52  44  74 CALM      30.19R
RAWLINS        FAIR      45  42  89 CALM      30.18R
SARATOGA       PTSUNNY   45  45 100 S5        30.20S
LARAMIE        FAIR      45  43  93 NW5       30.16F
CHEYENNE       FAIR      53  46  77 NW9       30.09F
TORRINGTON     FAIR      56  55  97 W8        29.99F
PINE BLUFFS    FAIR      52  52 100 NW3       30.05S

$$




USA.gov is the U.S. government's official web portal to all federal, state and local government web resources and services.